Find Starlink 30407

NORAD ID: 57823 Int'l Des: 2023-138 Owner: SPXS Country: US Constellation: starlink operational
LEOCIRCULAR

实时位置

正在加载3D地球...

关于 Starlink 30407

正在加载描述...

即将过境

Passes for default location (London). Set your location on the main map for personalized predictions.

高度历史

Loading altitude history...

两行轨道根数

1 57823U 23138R 26126.47203169 -.00009316 00000-0 -32906-3 0 9995
2 57823 43.0017 162.4612 0001269 278.0143 82.0565 15.27617911148804
Epoch: May 6, 2026 • Age: 5 hours

当前状态

高度 486.9 km
速度 7.63 km/s
星下点 43.11°N, 137.17°E
发射日期 Sep 9, 2023
运行时间 2.6 years
类型 internet

技术详情

分类 Payload
质量 730.00 kg
干质量 700.00 kg
总质量 730.00 kg
长度 0.30 m
直径 4.10 m
跨度 29.00 m
形状 Box + pan
制造商 SPXS
平台类型 Starlink V2M
阶段状态 In Orbit
所有者/国家 SPXS/US

Most Searched